Regional Weather Roundup
Issued by NWS

Home | Current Version | Previous Version | Graphics & Text | Print | Product List | Glossary On
Versions: 1 2 3 4 5 6 7 8 9 10 11 12 13 14 15 16 17 18 19 20 21 22 23 24 25 26 27 28 29 30 31 32 33 34 35 36 37 38 39 40 41 42 43 44 45 46 47 48 49 50
000
ASUS43 KLMK 281410
RWRKY
KENTUCKY REGIONAL WEATHER ROUNDUP
NATIONAL WEATHER SERVICE LOUISVILLE KY
900 AM EST SUN DEC 28 2014

NOTE "FAIR" INDICATES FEW OR NO CLOUDS BELOW 12,000 FEET
WITH NO SIGNIFICANT WEATHER AND/OR OBSTRUCTIONS TO VISIBILITY.

KYZ001>023-026-027-061>063-070>075-281500-
WESTERN AND SOUTH CENTRAL KENTUCKY

CITY           SKY/WX    TMP DP  RH WIND       PRES   REMARKS
PADUCAH        CLOUDY    35  30  82 N7        30.21R WCI  29
HENDERSON      CLOUDY    34  28  80 N6        30.22R WCI  29
OWENSBORO      CLOUDY    35  30  82 N9        30.21R WCI  28
HOPKINSVILLE   CLOUDY    37  36  93 N6        30.19R WCI  33
BOWLING GREEN  CLOUDY    40  36  86 NW6       30.17R
GLASGOW        LGT RAIN  39  39 100 N3        30.13F
$$

KYZ024-025-028>034-038-045-046-053-281500-
NORTH CENTRAL KENTUCKY

CITY           SKY/WX    TMP DP  RH WIND       PRES   REMARKS
LOUISVILLE/SDF CLOUDY    38  35  89 NW9       30.14R WCI  31
LOUISVILLE/LOU CLOUDY    37  35  92 N6        30.15R WCI  32
FORT KNOX      CLOUDY    37  36  93 NW7       30.13F WCI  32
$$

KYZ035>037-039>044-047>052-055>060-089>105-281500-
NORTHEAST KENTUCKY

CITY           SKY/WX    TMP DP  RH WIND       PRES   REMARKS
LEXINGTON      CLOUDY    38  37  97 NW8       30.13R WCI  32
COVINGTON      CLOUDY    36  31  82 NW9       30.13R WCI  29
FRANKFORT      CLOUDY    37  34  89 NW7       30.13R WCI  32
$$

KYZ054-064>069-076>088-106>120-281500-
SOUTHEAST KENTUCKY

CITY           SKY/WX    TMP DP  RH WIND       PRES   REMARKS
JACKSON        RAIN      46  44  93 CALM      30.08R VSB 1/2
LONDON         LGT RAIN  48  44  86 W3        30.09R FOG
SOMERSET       RAIN      43  43 100 N9        30.13R
MIDDLESBORO    RAIN      47  47 100 CALM      30.09R
MONTICELLO     CLOUDY    45  43  93 NW6       30.15R FOG
$$




USA.gov is the U.S. government's official web portal to all federal, state and local government web resources and services.